Hourly Data Report for October 13, 2015

All times are specified in Local Standard Time (LST). Add 1 hour to adjust for Daylight Saving Time where and when it is observed.

TORONTO INTL A
ONTARIO

43°40'36.000" N
79°37'50.000" W
173.40 m
6158731
71624
YYZ

Download Data

Hourly Data (October 2015)
Hourly Data Report for October 13, 2015
Temp Definition
°C
Dew Point Temp Definition
°C
Rel Hum Definition
%
Wind Dir Definition
10's deg

Wind Spd Definition
km/h
Visibility Definition
km
Stn Press Definition
kPa
Hmdx Definition


Wind Chill Definition


Weather Definition


TIME
00:00 Legend Double Dagger 17.9 11.1 64 16 13 24.1 97.53     LegendNANA
01:00 Legend Double Dagger 18.2 10.9 62 17 9 24.1 97.46     Mostly Cloudy
02:00 Legend Double Dagger 18.3 11.2 63 19 18 24.1 97.41     LegendNANA
03:00 Legend Double Dagger 18.1 11.7 66 20 16 24.1 97.32     LegendNANA
04:00 Legend Double Dagger 17.6 11.9 69 21 16 24.1 97.33     Mostly Cloudy
05:00 Legend Double Dagger 16.8 12.4 75 24 22 24.1 97.39     LegendNANA
06:00 Legend Double Dagger 15.1 9.9 71 25 19 24.1 97.39     LegendNANA
07:00 Legend Double Dagger 14.3 7.6 64 26 34 24.1 97.49     Mostly Cloudy
08:00 Legend Double Dagger 13.5 6.7 63 26 29 24.1 97.57     LegendNANA
09:00 Legend Double Dagger 14.4 6.6 59 24 18 24.1 97.57     LegendNANA
10:00 Legend Double Dagger 13.8 6.2 60 26 25 24.1 97.59     Mainly Clear
11:00 Legend Double Dagger 14.1 6.3 59 24 35 24.1 97.65     LegendNANA
12:00 Legend Double Dagger 14.9 7.0 59 27 35 24.1 97.64     LegendNANA
13:00 Legend Double Dagger 14.8 8.1 64 25 31 24.1 97.65     Mostly Cloudy
14:00 Legend Double Dagger 14.7 8.0 64 25 36 24.1 97.68     LegendNANA
15:00 Legend Double Dagger 14.5 8.7 68 25 34 24.1 97.73     LegendNANA
16:00 Legend Double Dagger 14.4 9.3 71 24 32 24.1 97.78     Mostly Cloudy
17:00 Legend Double Dagger 14.2 9.5 73 25 30 24.1 97.84     LegendNANA
18:00 Legend Double Dagger 12.7 10.6 87 25 18 24.1 97.90     LegendNANA
19:00 Legend Double Dagger 12.8 10.0 83 27 20 24.1 98.01     Mostly Cloudy
20:00 Legend Double Dagger 11.9 9.0 82 26 17 24.1 98.05     LegendNANA
21:00 Legend Double Dagger 12.1 8.2 77 28 21 24.1 98.13     LegendNANA
22:00 Legend Double Dagger 11.6 8.8 83 27 18 24.1 98.19     Mostly Cloudy
23:00 Legend Double Dagger 11.9 8.2 78 29 27 24.1 98.22     LegendNANA

Notes on Data Quality.

Legend

  • E = Estimated
  • M = Missing
  • NA = Not Available
  • ‡ = Partner data that is not subject to review by the National Climate Archives
Date modified: